[TLELIST] Archives

 

[TLELIST] Current TLEs

March 14th 2025 PDT

HST 1 20580U 90037B 25072.87088056 .00012504 00000-0 49847-3 0 9999 2 20580 28.4686 330.3478 0002195 99.4189 260.6653 15.23622828718122 ISS (ZARYA) 1 25544U 98067A 25073.14731082 .00017389 00000-0 31200-3 0 9990 2 25544 51.6356 57.7581 0006471 19.1433 340.9798 15.49984547500427 CXO 1 25867U 99040B 25074.23886041 .00000935 00000-0 00000-0 0 9997 2 25867 47.4145 134.4462 8560507 307.7631 0.4342 0.37810972 15586 ...Continue Reading

[TLELIST] Current TLEs

March 14th 2025 PDT

HST 1 20580U 90037B 25072.87088056 .00012504 00000-0 49847-3 0 9999 2 20580 28.4686 330.3478 0002195 99.4189 260.6653 15.23622828718122 ISS (ZARYA) 1 25544U 98067A 25073.14731082 .00017389 00000-0 31200-3 0 9990 2 25544 51.6356 57.7581 0006471 19.1433 340.9798 15.49984547500427 CXO 1 25867U 99040B 25074.23886041 .00000935 00000-0 00000-0 0 9997 2 25867 47.4145 134.4462 8560507 307.7631 0.4342 0.37810972 15586 ...Continue Reading

[TLELIST] Current TLEs

March 13th 2025 PDT

HST 1 20580U 90037B 25071.75734394 .00011232 00000-0 44744-3 0 9996 2 20580 28.4691 337.8747 0002213 89.7776 270.3071 15.23590476717959 ISS (ZARYA) 1 25544U 98067A 25072.18018688 .00018976 00000-0 34009-3 0 9996 2 25544 51.6353 62.5500 0006422 15.6574 344.4612 15.49949950500278 CXO 1 25867U 99040B 25074.23886041 .00000935 00000-0 00000-0 0 9997 2 25867 47.4145 134.4462 8560507 307.7631 0.4342 0.37810972 15586 ...Continue Reading

[TLELIST] Current TLEs

March 12th 2025 PDT

HST 1 20580U 90037B 25071.16781464 .00011821 00000-0 47149-3 0 9997 2 20580 28.4692 341.8603 0002197 83.6816 276.4028 15.23578003718126 ISS (ZARYA) 1 25544U 98067A 25071.34199439 .00013876 00000-0 25129-3 0 9994 2 25544 51.6352 66.7028 0006423 12.5650 347.5498 15.49917383500147 CXO 1 25867U 99040B 25071.59384992 .00000942 00000-0 00000+0 0 9998 2 25867 47.3636 134.5734 8566439 307.7117 0.3660 0.37809100 26734 ...Continue Reading

[TLELIST] Current TLEs

March 11th 2025 PDT

HST 1 20580U 90037B 25069.85773266 .00009524 00000-0 37869-3 0 9996 2 20580 28.4694 350.7170 0002171 69.6410 290.4417 15.23547573717666 ISS (ZARYA) 1 25544U 98067A 25070.33428170 .00014805 00000-0 26777-3 0 9992 2 25544 51.6365 71.6941 0006390 9.7460 123.9698 15.49894071499985 CXO 1 25867U 99040B 25071.59384992 .00000942 00000-0 00000+0 0 9998 2 25867 47.3636 134.5734 8566439 307.7117 0.3660 0.37809100 26734 ...Continue Reading

[TLELIST] Current TLEs

March 10th 2025 PDT

HST 1 20580U 90037B 25068.87515437 .00010959 00000-0 43718-3 0 9995 2 20580 28.4695 357.3585 0002159 60.5953 299.4856 15.23529329717517 ISS (ZARYA) 1 25544U 98067A 25069.36829310 .00013854 00000-0 25135-3 0 9994 2 25544 51.6377 76.4770 0006719 6.4623 133.8926 15.49866033499836 CXO 1 25867U 99040B 25071.59384992 .00000942 00000-0 00000+0 0 9998 2 25867 47.3636 134.5734 8566439 307.7117 0.3660 0.37809100 26734 ...Continue Reading

[TLELIST] Current TLEs

March 9th 2025 PDT

HST 1 20580U 90037B 25067.49952209 .00009765 00000-0 38900-3 0 9994 2 20580 28.4695 6.6563 0002110 47.4203 312.6569 15.23500934717303 ISS (ZARYA) 1 25544U 98067A 25068.38968922 .00010660 00000-0 19558-3 0 9992 2 25544 51.6366 81.3254 0006344 1.9459 74.7103 15.49832014499682 CXO 1 25867U 99040B 25068.94821828 .00000959 00000-0 00000-0 0 9996 2 25867 47.2989 134.7220 8571355 307.6356 0.2414 0.37805294 15579 ...Continue Reading

[TLELIST] Current TLEs

March 8th 2025 PDT

HST 1 20580U 90037B 25066.51691254 .00008783 00000-0 34926-3 0 9999 2 20580 28.4694 13.2976 0002065 37.9671 322.1068 15.23482481717155 ISS (ZARYA) 1 25544U 98067A 25067.37906250 .00010334 00000-0 19002-3 0 9998 2 25544 51.6364 86.3312 0006264 358.6322 195.6506 15.49806834499526 CXO 1 25867U 99040B 25068.94821828 .00000959 00000-0 00000-0 0 9996 2 25867 47.2989 134.7220 8571355 307.6356 0.2414 0.37805294 15579 ...Continue Reading

[TLELIST] Current TLEs

March 7th 2025 PDT

HST 1 20580U 90037B 25065.53429201 .00008779 00000-0 34928-3 0 9998 2 20580 28.4692 19.9387 0002016 29.0281 331.0425 15.23465156717007 ISS (ZARYA) 1 25544U 98067A 25066.26578413 .00009044 00000-0 16748-3 0 9991 2 25544 51.6364 91.8418 0006216 352.6793 106.2280 15.49780711499350 CXO 1 25867U 99040B 25063.66024806 .00000945 00000-0 00000-0 0 9996 2 25867 47.1628 135.0530 8579164 307.4424 0.5388 0.37810766 15546 ...Continue Reading

[TLELIST] Current TLEs

March 7th 2025 PDT

HST 1 20580U 90037B 25065.53429201 .00008779 00000-0 34928-3 0 9998 2 20580 28.4692 19.9387 0002016 29.0281 331.0425 15.23465156717007 ISS (ZARYA) 1 25544U 98067A 25066.26578413 .00009044 00000-0 16748-3 0 9991 2 25544 51.6364 91.8418 0006216 352.6793 106.2280 15.49780711499350 CXO 1 25867U 99040B 25063.66024806 .00000945 00000-0 00000-0 0 9996 2 25867 47.1628 135.0530 8579164 307.4424 0.5388 0.37810766 15546 ...Continue Reading
  • This mailing list is a public mailing list - anyone may join or leave, at any time.
  • This mailing list is announce-only.

International Space Station (ISS) / Hubble Space Telescope (HST) / Chandra X-Ray Observatory Orbital Data via EMAIL

Privacy Policy:

Private list